BAW815C EKCH-EGLL

Flight info

Callsign BAW815C
Flight time 1h 33m
Altitude 34000
Route LANGO2A LANGO DCT RAXLU DCT JUIST DCT ABNED L980 LOGAN LOGAN2H
Aircraft A21N/M-SDE3FGHIJ1LRWXYZ/SB1G1

Departure

Time 2026-05-06 16:24
Airport Copenhagen Kastrup Airport (EKCH)

Arrival

Time 2026-05-06 17:57
Airport London Heathrow Airport (EGLL)
Time Latitude Longitude Altitude Speed Heading
2026-05-06 15:42 55.62696 12.65090 20 ft 0 kts 290°
2026-05-06 16:10 55.62691 12.65111 20 ft 2 kts 298°
2026-05-06 16:10 55.62684 12.65135 19 ft 2 kts 294°
2026-05-06 16:10 55.62678 12.65159 19 ft 2 kts 295°
2026-05-06 16:11 55.62672 12.65183 19 ft 2 kts 295°
2026-05-06 16:11 55.62666 12.65207 19 ft 2 kts 294°
2026-05-06 16:11 55.62660 12.65231 19 ft 2 kts 295°
2026-05-06 16:11 55.62654 12.65254 19 ft 1 kts 294°
2026-05-06 16:12 55.62652 12.65264 19 ft 0 kts 267°
2026-05-06 16:12 55.62652 12.65268 19 ft 0 kts 266°
2026-05-06 16:14 55.62651 12.65258 18 ft 1 kts 266°
2026-05-06 16:15 55.62640 12.65213 18 ft 7 kts 228°
2026-05-06 16:15 55.62575 12.65199 18 ft 10 kts 183°
2026-05-06 16:15 55.62501 12.65198 18 ft 10 kts 179°
2026-05-06 16:15 55.62422 12.65205 18 ft 11 kts 177°
2026-05-06 16:16 55.62334 12.65208 18 ft 13 kts 185°
2026-05-06 16:16 55.62236 12.65194 17 ft 14 kts 195°
2026-05-06 16:16 55.62146 12.65108 15 ft 15 kts 213°
2026-05-06 16:16 55.62113 12.65070 15 ft 0 kts 213°
2026-05-06 16:17 55.62109 12.65065 15 ft 3 kts 213°
2026-05-06 16:17 55.62064 12.65015 15 ft 11 kts 213°
2026-05-06 16:17 55.61981 12.64921 15 ft 17 kts 213°
2026-05-06 16:18 55.61865 12.64785 15 ft 21 kts 215°
2026-05-06 16:18 55.61740 12.64639 15 ft 21 kts 212°
2026-05-06 16:18 55.61617 12.64505 15 ft 20 kts 211°
2026-05-06 16:18 55.61502 12.64364 15 ft 19 kts 213°
2026-05-06 16:19 55.61388 12.64235 16 ft 18 kts 213°
2026-05-06 16:19 55.61278 12.64112 16 ft 18 kts 211°
2026-05-06 16:19 55.61171 12.63987 15 ft 18 kts 213°
2026-05-06 16:19 55.61143 12.63954 16 ft 18 kts 213°
2026-05-06 16:20 55.61063 12.63863 16 ft 17 kts 215°
2026-05-06 16:20 55.60960 12.63743 17 ft 17 kts 213°
2026-05-06 16:20 55.60858 12.63630 15 ft 18 kts 212°
2026-05-06 16:20 55.60777 12.63625 15 ft 9 kts 128°
2026-05-06 16:21 55.60736 12.63692 15 ft 0 kts 136°
2026-05-06 16:22 55.60734 12.63694 15 ft 0 kts 136°
2026-05-06 16:22 55.60713 12.63734 15 ft 6 kts 133°
2026-05-06 16:22 55.60691 12.63803 15 ft 7 kts 110°
2026-05-06 16:22 55.60701 12.63891 15 ft 7 kts 59°
2026-05-06 16:23 55.60742 12.63971 15 ft 10 kts 42°
2026-05-06 16:23 55.60911 12.64260 15 ft 69 kts 45°
2026-05-06 16:23 55.61460 12.65089 16 ft 137 kts 42°
2026-05-06 16:23 55.62274 12.66336 313 ft 163 kts 44°
2026-05-06 16:24 55.63132 12.67683 917 ft 168 kts 45°
2026-05-06 16:24 55.63993 12.69019 1732 ft 165 kts 45°
2026-05-06 16:24 55.64857 12.70378 2263 ft 175 kts 45°
2026-05-06 16:24 55.65802 12.71870 2786 ft 188 kts 45°
2026-05-06 16:25 55.66799 12.73416 3377 ft 198 kts 43°
2026-05-06 16:25 55.67901 12.75001 3971 ft 209 kts 40°
2026-05-06 16:25 55.69049 12.76617 4510 ft 223 kts 40°
2026-05-06 16:25 55.70268 12.78513 4896 ft 245 kts 53°
2026-05-06 16:26 55.70964 12.81367 5423 ft 262 kts 81°
2026-05-06 16:26 55.70757 12.84528 6247 ft 268 kts 113°
2026-05-06 16:26 55.69603 12.87119 7115 ft 273 kts 137°
2026-05-06 16:26 55.67956 12.88862 7827 ft 283 kts 161°
2026-05-06 16:27 55.66042 12.89540 8646 ft 286 kts 170°
2026-05-06 16:27 55.64135 12.90463 9454 ft 289 kts 159°
2026-05-06 16:27 55.62236 12.91673 10180 ft 295 kts 167°
2026-05-06 16:27 55.60158 12.91535 10554 ft 310 kts 201°
2026-05-06 16:28 55.58261 12.89634 10898 ft 325 kts 223°
2026-05-06 16:28 55.56715 12.86594 11315 ft 339 kts 231°
2026-05-06 16:28 55.55103 12.83499 11858 ft 349 kts 226°
2026-05-06 16:28 55.53399 12.80493 12580 ft 353 kts 229°
2026-05-06 16:29 55.52039 12.76928 13375 ft 352 kts 246°
2026-05-06 16:29 55.51360 12.72809 14135 ft 352 kts 263°
2026-05-06 16:29 55.51169 12.68480 14889 ft 354 kts 267°
2026-05-06 16:29 55.51032 12.64196 15560 ft 358 kts 267°
2026-05-06 16:30 55.50890 12.59815 16235 ft 361 kts 267°
2026-05-06 16:30 55.50841 12.58352 16444 ft 361 kts 267°
2026-05-06 16:30 55.50575 12.50935 17558 ft 366 kts 266°
2026-05-06 16:30 55.50407 12.46450 18181 ft 369 kts 266°
2026-05-06 16:31 55.50233 12.41928 18797 ft 371 kts 266°
2026-05-06 16:31 55.50055 12.37372 19373 ft 374 kts 266°
2026-05-06 16:31 55.49873 12.32798 19981 ft 377 kts 265°
2026-05-06 16:31 55.49623 12.28233 20538 ft 379 kts 259°
2026-05-06 16:32 55.48875 12.23753 21116 ft 381 kts 248°
2026-05-06 16:32 55.47628 12.19674 21671 ft 384 kts 237°
2026-05-06 16:32 55.46044 12.15855 22221 ft 386 kts 234°
2026-05-06 16:32 55.44441 12.12122 22747 ft 389 kts 234°
2026-05-06 16:33 55.42791 12.08298 23249 ft 391 kts 234°
2026-05-06 16:33 55.41139 12.04465 23763 ft 393 kts 234°
2026-05-06 16:33 55.39496 12.00647 24243 ft 395 kts 234°
2026-05-06 16:34 55.36169 11.92913 25100 ft 402 kts 234°
2026-05-06 16:34 55.34469 11.88967 25530 ft 404 kts 233°
2026-05-06 16:34 55.32785 11.85065 25930 ft 407 kts 233°
2026-05-06 16:34 55.31073 11.81106 26337 ft 409 kts 233°
2026-05-06 16:35 55.29350 11.77126 26743 ft 411 kts 233°
2026-05-06 16:35 55.27629 11.73162 27109 ft 414 kts 233°
2026-05-06 16:35 55.25875 11.69090 27439 ft 417 kts 234°
2026-05-06 16:35 55.24250 11.64966 27784 ft 419 kts 236°
2026-05-06 16:36 55.22668 11.60674 28151 ft 421 kts 237°
2026-05-06 16:36 55.21077 11.56373 28452 ft 424 kts 236°
2026-05-06 16:36 55.19472 11.52040 28766 ft 426 kts 236°
2026-05-06 16:36 55.17872 11.47725 29169 ft 425 kts 236°
2026-05-06 16:37 55.16271 11.43410 29658 ft 423 kts 236°
2026-05-06 16:37 55.14676 11.39121 30121 ft 421 kts 236°
2026-05-06 16:37 55.13090 11.34861 30516 ft 421 kts 234°
2026-05-06 16:37 55.11483 11.30557 30918 ft 420 kts 234°
2026-05-06 16:38 55.09887 11.26291 31316 ft 418 kts 235°
2026-05-06 16:38 55.08312 11.22088 31675 ft 417 kts 234°
2026-05-06 16:38 55.06725 11.17863 32040 ft 416 kts 235°
2026-05-06 16:38 55.05146 11.13662 32343 ft 416 kts 235°
2026-05-06 16:39 55.03569 11.09469 32603 ft 417 kts 235°
2026-05-06 16:39 55.01981 11.05258 32865 ft 418 kts 235°
2026-05-06 16:39 55.00372 11.00995 33091 ft 419 kts 235°
2026-05-06 16:39 54.98782 10.96790 33289 ft 420 kts 235°
2026-05-06 16:40 54.97181 10.92565 33503 ft 421 kts 235°
2026-05-06 16:40 54.95547 10.88274 33740 ft 421 kts 236°
2026-05-06 16:40 54.93938 10.84050 33899 ft 423 kts 235°
2026-05-06 16:41 54.90648 10.75605 33905 ft 424 kts 235°
2026-05-06 16:41 54.87340 10.67187 33909 ft 424 kts 235°
2026-05-06 16:42 54.84016 10.58750 33907 ft 425 kts 235°
2026-05-06 16:42 54.80676 10.50302 33906 ft 425 kts 235°
2026-05-06 16:43 54.77335 10.41878 33908 ft 425 kts 235°
2026-05-06 16:43 54.73989 10.33481 33906 ft 426 kts 234°
2026-05-06 16:44 54.70788 10.24950 33904 ft 427 kts 238°
2026-05-06 16:44 54.67896 10.16003 33907 ft 427 kts 239°
2026-05-06 16:45 54.64997 10.07037 33906 ft 428 kts 239°
2026-05-06 16:45 54.62091 9.98078 33908 ft 428 kts 239°
2026-05-06 16:46 54.59184 9.89144 33904 ft 428 kts 239°
2026-05-06 16:46 54.56269 9.80216 33910 ft 428 kts 239°
2026-05-06 16:47 54.53359 9.71333 33908 ft 428 kts 239°
2026-05-06 16:47 54.50436 9.62446 33904 ft 428 kts 239°
2026-05-06 16:48 54.47508 9.53573 33904 ft 429 kts 239°
2026-05-06 16:48 54.44559 9.44672 33908 ft 428 kts 239°
2026-05-06 16:49 54.41618 9.35821 33903 ft 428 kts 239°
2026-05-06 16:49 54.38654 9.26937 33906 ft 428 kts 239°
2026-05-06 16:50 54.35706 9.18135 33902 ft 429 kts 239°
2026-05-06 16:50 54.32727 9.09269 33900 ft 429 kts 239°
2026-05-06 16:51 54.29746 9.00433 33898 ft 430 kts 239°
2026-05-06 16:51 54.26761 8.91612 33898 ft 429 kts 239°
2026-05-06 16:52 54.23781 8.82842 33899 ft 429 kts 239°
2026-05-06 16:52 54.20785 8.74054 33897 ft 430 kts 239°
2026-05-06 16:53 54.17767 8.65232 33899 ft 430 kts 239°
2026-05-06 16:53 54.14767 8.56496 33902 ft 429 kts 239°
2026-05-06 16:54 54.11747 8.47736 33906 ft 430 kts 239°
2026-05-06 16:54 54.08718 8.38975 33909 ft 430 kts 239°
2026-05-06 16:55 54.05695 8.30267 33913 ft 430 kts 238°
2026-05-06 16:55 54.02652 8.21531 33911 ft 430 kts 238°
2026-05-06 16:56 53.99598 8.12793 33910 ft 430 kts 238°
2026-05-06 16:56 53.96535 8.04061 33912 ft 430 kts 238°
2026-05-06 16:57 53.93486 7.95399 33906 ft 430 kts 238°
2026-05-06 16:57 53.90415 7.86704 33901 ft 430 kts 238°
2026-05-06 16:58 53.87341 7.78033 33908 ft 430 kts 238°
2026-05-06 16:58 53.84246 7.69334 33907 ft 430 kts 238°
2026-05-06 16:59 53.81174 7.60727 33911 ft 430 kts 238°
2026-05-06 16:59 53.78080 7.52091 33909 ft 430 kts 238°
2026-05-06 17:00 53.74984 7.43476 33914 ft 430 kts 238°
2026-05-06 17:00 53.71874 7.34855 33911 ft 430 kts 238°
2026-05-06 17:01 53.68756 7.26239 33913 ft 430 kts 238°
2026-05-06 17:01 53.65639 7.17655 33912 ft 431 kts 238°
2026-05-06 17:02 53.62508 7.09062 33915 ft 430 kts 238°
2026-05-06 17:02 53.59383 7.00518 33911 ft 430 kts 238°
2026-05-06 17:03 53.56226 6.92024 33910 ft 430 kts 236°
2026-05-06 17:03 53.52751 6.83779 33917 ft 430 kts 234°
2026-05-06 17:04 53.49278 6.75626 33919 ft 430 kts 234°
2026-05-06 17:04 53.45815 6.67523 33916 ft 430 kts 234°
2026-05-06 17:05 53.42325 6.59389 33919 ft 430 kts 234°
2026-05-06 17:05 53.38825 6.51255 33915 ft 431 kts 234°
2026-05-06 17:06 53.35314 6.43124 33915 ft 431 kts 234°
2026-05-06 17:06 53.31811 6.35039 33915 ft 431 kts 234°
2026-05-06 17:07 53.28294 6.26944 33916 ft 431 kts 233°
2026-05-06 17:07 53.24769 6.18859 33915 ft 431 kts 233°
2026-05-06 17:08 53.21230 6.10766 33916 ft 431 kts 233°
2026-05-06 17:08 53.17710 6.02745 33921 ft 431 kts 233°
2026-05-06 17:09 53.14150 5.94656 33920 ft 431 kts 233°
2026-05-06 17:09 53.10592 5.86597 33922 ft 432 kts 233°
2026-05-06 17:10 53.07024 5.78544 33921 ft 432 kts 233°
2026-05-06 17:10 53.03483 5.70576 33921 ft 432 kts 233°
2026-05-06 17:11 52.99894 5.62523 33920 ft 433 kts 233°
2026-05-06 17:11 52.96318 5.54526 33917 ft 432 kts 233°
2026-05-06 17:12 52.92759 5.46592 33915 ft 433 kts 233°
2026-05-06 17:12 52.89173 5.38626 33916 ft 433 kts 233°
2026-05-06 17:13 52.85554 5.30609 33918 ft 434 kts 233°
2026-05-06 17:13 52.82016 5.22796 33915 ft 434 kts 233°
2026-05-06 17:14 52.78526 5.15114 33920 ft 434 kts 233°
2026-05-06 17:14 52.74952 5.07269 33926 ft 434 kts 233°
2026-05-06 17:15 52.71315 4.99310 33925 ft 435 kts 233°
2026-05-06 17:15 52.67701 4.91427 33924 ft 435 kts 233°
2026-05-06 17:16 52.64031 4.83447 33923 ft 435 kts 233°
2026-05-06 17:16 52.60389 4.75553 33924 ft 435 kts 233°
2026-05-06 17:17 52.56720 4.67625 33926 ft 435 kts 233°
2026-05-06 17:17 52.53033 4.59683 33926 ft 436 kts 233°
2026-05-06 17:18 52.49356 4.51785 33926 ft 435 kts 233°
2026-05-06 17:18 52.45654 4.43860 33926 ft 436 kts 233°
2026-05-06 17:19 52.41978 4.36014 33923 ft 436 kts 233°
2026-05-06 17:19 52.38268 4.28121 33926 ft 436 kts 232°
2026-05-06 17:20 52.34555 4.20244 33924 ft 437 kts 232°
2026-05-06 17:20 52.30885 4.12484 33922 ft 436 kts 232°
2026-05-06 17:21 52.27159 4.04629 33925 ft 437 kts 232°
2026-05-06 17:21 52.23441 3.96814 33920 ft 437 kts 232°
2026-05-06 17:22 52.19695 3.88965 33925 ft 437 kts 232°
2026-05-06 17:22 52.15976 3.81195 33916 ft 437 kts 232°
2026-05-06 17:23 52.12222 3.73378 33917 ft 437 kts 233°
2026-05-06 17:23 52.08484 3.65616 33918 ft 437 kts 233°
2026-05-06 17:24 52.04715 3.57813 33911 ft 437 kts 233°
2026-05-06 17:24 52.00957 3.50057 33915 ft 438 kts 233°
2026-05-06 17:25 51.97174 3.42272 33919 ft 438 kts 233°
2026-05-06 17:25 51.93397 3.34525 33927 ft 438 kts 232°
2026-05-06 17:26 51.89689 3.26745 33924 ft 438 kts 236°
2026-05-06 17:26 51.86692 3.18199 33929 ft 438 kts 246°
2026-05-06 17:27 51.84684 3.08917 33928 ft 437 kts 256°
2026-05-06 17:27 51.83693 2.99204 33925 ft 438 kts 264°
2026-05-06 17:28 51.83073 2.89440 33926 ft 438 kts 264°
2026-05-06 17:28 51.82446 2.79653 33924 ft 438 kts 264°
2026-05-06 17:29 51.81797 2.69891 33938 ft 438 kts 264°
2026-05-06 17:29 51.81136 2.60171 33665 ft 438 kts 264°
2026-05-06 17:29 51.80795 2.55251 33232 ft 435 kts 264°
2026-05-06 17:30 51.80460 2.50432 32674 ft 433 kts 264°
2026-05-06 17:30 51.80121 2.45600 32027 ft 433 kts 263°
2026-05-06 17:30 51.79784 2.40813 31346 ft 434 kts 263°
2026-05-06 17:30 51.79442 2.35982 30611 ft 435 kts 263°
2026-05-06 17:31 51.79095 2.31151 29848 ft 435 kts 263°
2026-05-06 17:31 51.78739 2.26221 29069 ft 436 kts 263°
2026-05-06 17:31 51.78397 2.21429 28329 ft 435 kts 263°
2026-05-06 17:31 51.78099 2.16587 27821 ft 430 kts 264°
2026-05-06 17:32 51.77829 2.11857 27321 ft 424 kts 264°
2026-05-06 17:32 51.77557 2.07107 26874 ft 417 kts 264°
2026-05-06 17:32 51.77291 2.02538 26706 ft 404 kts 264°
2026-05-06 17:32 51.77027 1.98054 26521 ft 391 kts 264°
2026-05-06 17:33 51.76772 1.93793 26260 ft 382 kts 264°
2026-05-06 17:33 51.76517 1.89563 26108 ft 369 kts 264°
2026-05-06 17:33 51.76274 1.85556 25968 ft 357 kts 264°
2026-05-06 17:33 51.76032 1.81597 25797 ft 347 kts 264°
2026-05-06 17:34 51.75799 1.77810 25625 ft 336 kts 264°
2026-05-06 17:34 51.75573 1.74149 25510 ft 325 kts 264°
2026-05-06 17:34 51.75348 1.70542 25388 ft 322 kts 264°
2026-05-06 17:34 51.75121 1.66937 25256 ft 321 kts 264°
2026-05-06 17:35 51.74895 1.63339 25105 ft 321 kts 264°
2026-05-06 17:35 51.74669 1.59761 24772 ft 321 kts 264°
2026-05-06 17:35 51.74441 1.56174 24237 ft 323 kts 264°
2026-05-06 17:36 51.73982 1.48989 23392 ft 319 kts 264°
2026-05-06 17:36 51.73751 1.45425 23065 ft 314 kts 264°
2026-05-06 17:36 51.73527 1.41953 22736 ft 310 kts 264°
2026-05-06 17:36 51.73305 1.38545 22416 ft 305 kts 264°
2026-05-06 17:37 51.73086 1.35187 22089 ft 301 kts 264°
2026-05-06 17:37 51.72867 1.31858 21729 ft 298 kts 264°
2026-05-06 17:37 51.72646 1.28504 21106 ft 305 kts 264°
2026-05-06 17:37 51.72414 1.24996 20286 ft 316 kts 264°
2026-05-06 17:38 51.72174 1.21396 19613 ft 341 kts 264°
2026-05-06 17:38 51.71908 1.17400 18993 ft 372 kts 264°
2026-05-06 17:38 51.71628 1.13247 18384 ft 377 kts 264°
2026-05-06 17:38 51.71344 1.09050 17804 ft 376 kts 264°
2026-05-06 17:39 51.71062 1.04903 17234 ft 374 kts 264°
2026-05-06 17:39 51.70776 1.00713 16749 ft 370 kts 264°
2026-05-06 17:39 51.70494 0.96619 16176 ft 368 kts 265°
2026-05-06 17:39 51.70211 0.92512 15609 ft 366 kts 264°
2026-05-06 17:40 51.69933 0.88487 15123 ft 362 kts 264°
2026-05-06 17:40 51.69651 0.84439 14600 ft 359 kts 265°
2026-05-06 17:40 51.69374 0.80485 14066 ft 356 kts 265°
2026-05-06 17:40 51.69095 0.76538 13535 ft 354 kts 265°
2026-05-06 17:41 51.68815 0.72605 12964 ft 353 kts 265°
2026-05-06 17:41 51.68537 0.68679 12411 ft 352 kts 265°
2026-05-06 17:41 51.68259 0.64777 11928 ft 348 kts 265°
2026-05-06 17:41 51.67984 0.60934 11466 ft 347 kts 265°
2026-05-06 17:42 51.67707 0.57094 11028 ft 345 kts 265°
2026-05-06 17:42 51.67430 0.53275 10584 ft 343 kts 265°
2026-05-06 17:42 51.67153 0.49484 10165 ft 341 kts 265°
2026-05-06 17:42 51.66872 0.45636 9722 ft 340 kts 265°
2026-05-06 17:43 51.66600 0.41918 9361 ft 334 kts 265°
2026-05-06 17:43 51.66325 0.38194 8922 ft 335 kts 265°
2026-05-06 17:43 51.66051 0.34490 8489 ft 334 kts 264°
2026-05-06 17:43 51.65773 0.30749 8086 ft 332 kts 264°
2026-05-06 17:44 51.65499 0.27070 7976 ft 332 kts 264°
2026-05-06 17:44 51.65221 0.23370 7963 ft 333 kts 264°
2026-05-06 17:44 51.64942 0.19681 7971 ft 333 kts 264°
2026-05-06 17:44 51.64661 0.15968 7968 ft 333 kts 264°
2026-05-06 17:45 51.64416 0.12276 7961 ft 333 kts 265°
2026-05-06 17:45 51.64211 0.08575 7972 ft 333 kts 266°
2026-05-06 17:45 51.64019 0.05008 7977 ft 333 kts 266°
2026-05-06 17:45 51.63820 0.01289 7969 ft 327 kts 266°
2026-05-06 17:46 51.63629 -0.02226 7874 ft 312 kts 266°
2026-05-06 17:46 51.63444 -0.05590 7658 ft 302 kts 266°
2026-05-06 17:46 51.63262 -0.08885 7454 ft 291 kts 266°
2026-05-06 17:46 51.63086 -0.12035 7270 ft 282 kts 266°
2026-05-06 17:47 51.62914 -0.15119 7043 ft 274 kts 266°
2026-05-06 17:47 51.62760 -0.17900 6984 ft 274 kts 266°
2026-05-06 17:47 51.62584 -0.21060 6980 ft 275 kts 266°
2026-05-06 17:47 51.62416 -0.24068 6971 ft 275 kts 266°
2026-05-06 17:48 51.62253 -0.27041 6977 ft 275 kts 266°
2026-05-06 17:48 51.62088 -0.30037 6975 ft 276 kts 266°
2026-05-06 17:48 51.61919 -0.33047 6976 ft 275 kts 266°
2026-05-06 17:48 51.61745 -0.36132 6978 ft 276 kts 266°
2026-05-06 17:49 51.61570 -0.39152 6981 ft 276 kts 266°
2026-05-06 17:49 51.61390 -0.42251 6979 ft 276 kts 266°
2026-05-06 17:49 51.61212 -0.45258 6981 ft 276 kts 266°
2026-05-06 17:49 51.61034 -0.48251 6980 ft 276 kts 266°
2026-05-06 17:50 51.60853 -0.51318 6981 ft 276 kts 266°
2026-05-06 17:50 51.60671 -0.54385 6984 ft 276 kts 266°
2026-05-06 17:50 51.60480 -0.57458 6981 ft 275 kts 264°
2026-05-06 17:50 51.59847 -0.60364 6967 ft 277 kts 239°
2026-05-06 17:51 51.58728 -0.62809 6876 ft 270 kts 233°
2026-05-06 17:51 51.57538 -0.65122 6699 ft 261 kts 231°
2026-05-06 17:51 51.56379 -0.67328 6524 ft 252 kts 231°
2026-05-06 17:51 51.55271 -0.69429 6330 ft 245 kts 230°
2026-05-06 17:52 51.54173 -0.71508 6039 ft 243 kts 231°
2026-05-06 17:52 51.53097 -0.73536 5876 ft 235 kts 231°
2026-05-06 17:52 51.52058 -0.75484 5720 ft 227 kts 230°
2026-05-06 17:52 51.50977 -0.77284 5532 ft 220 kts 214°
2026-05-06 17:53 51.49577 -0.78080 5338 ft 213 kts 179°
2026-05-06 17:53 51.48814 -0.77940 5238 ft 207 kts 159°
2026-05-06 17:53 51.48316 -0.77590 5151 ft 203 kts 148°
2026-05-06 17:53 51.47403 -0.75938 4923 ft 200 kts 110°
2026-05-06 17:54 51.47255 -0.73733 4569 ft 202 kts 83°
2026-05-06 17:54 51.47448 -0.71461 4073 ft 210 kts 81°
2026-05-06 17:54 51.47603 -0.69129 3479 ft 214 kts 83°
2026-05-06 17:54 51.47702 -0.66784 2981 ft 207 kts 84°
2026-05-06 17:55 51.47732 -0.64523 2571 ft 200 kts 86°
2026-05-06 17:55 51.47731 -0.62338 2131 ft 196 kts 86°
2026-05-06 17:55 51.47727 -0.60191 1639 ft 194 kts 86°
2026-05-06 17:55 51.47728 -0.58073 1284 ft 186 kts 85°
2026-05-06 17:56 51.47732 -0.56108 1030 ft 175 kts 85°
2026-05-06 17:56 51.47738 -0.54244 816 ft 176 kts 86°
2026-05-06 17:56 51.47741 -0.52294 615 ft 174 kts 86°
2026-05-06 17:56 51.47744 -0.50466 374 ft 161 kts 86°
2026-05-06 17:57 51.47749 -0.48770 141 ft 146 kts 86°
2026-05-06 17:57 51.47757 -0.47336 86 ft 122 kts 85°
2026-05-06 17:57 51.47762 -0.46301 83 ft 58 kts 96°
2026-05-06 17:57 51.47759 -0.45801 82 ft 43 kts 90°
2026-05-06 17:58 51.47695 -0.45467 84 ft 25 kts 164°
2026-05-06 17:58 51.47617 -0.45469 85 ft 1 kts 191°
2026-05-06 17:58 51.47604 -0.45483 85 ft 3 kts 228°
2026-05-06 17:58 51.47597 -0.45515 85 ft 2 kts 267°
2026-05-06 17:59 51.47596 -0.45563 85 ft 10 kts 267°
2026-05-06 17:59 51.47596 -0.45761 83 ft 24 kts 268°
2026-05-06 17:59 51.47593 -0.46004 82 ft 24 kts 269°
2026-05-06 17:59 51.47595 -0.46297 81 ft 24 kts 269°
2026-05-06 18:00 51.47596 -0.46554 82 ft 22 kts 265°
2026-05-06 18:00 51.47590 -0.46800 82 ft 21 kts 263°
2026-05-06 18:00 51.47583 -0.47030 82 ft 20 kts 271°
2026-05-06 18:00 51.47582 -0.47254 84 ft 19 kts 270°
2026-05-06 18:01 51.47581 -0.47464 84 ft 19 kts 268°
2026-05-06 18:01 51.47580 -0.47680 82 ft 19 kts 270°
2026-05-06 18:01 51.47583 -0.47891 81 ft 20 kts 267°
2026-05-06 18:01 51.47579 -0.48107 80 ft 20 kts 269°
2026-05-06 18:02 51.47580 -0.48340 79 ft 20 kts 271°
2026-05-06 18:02 51.47545 -0.48464 80 ft 7 kts 164°
2026-05-06 18:02 51.47496 -0.48470 80 ft 7 kts 187°
2026-05-06 18:02 51.47430 -0.48477 78 ft 13 kts 179°
2026-05-06 18:03 51.47351 -0.48476 77 ft 0 kts 180°
2026-05-06 18:03 51.47346 -0.48476 77 ft 2 kts 180°
2026-05-06 18:03 51.47321 -0.48484 77 ft 5 kts 220°
2026-05-06 18:03 51.47316 -0.48552 77 ft 7 kts 269°
2026-05-06 18:04 51.47315 -0.48581 77 ft 2 kts 268°
2026-05-06 18:04 51.47315 -0.48594 77 ft 0 kts 268°